Lapse_Rate
7.0 6.8 6.7 6.7 6.5 6.3 6.3 6.2 6.5 6.6 6.8 6.7 6.8 6.9 7.0 6.8 7.1 7.0 7.0 7.1 7.1 6.9 6.6 6.6 6.6 6.6 6.4 6.2 6.2 6.4 6.4 6.5 6.5 6.4 6.3 6.4 6.2 6.1 6.0 6.0 5.9 5.9 6.0
7.1 7.2 7.1 7.2 6.9 6.6 6.4 6.0 6.0 6.3 6.7 6.7 6.7 6.8 6.6 6.7 6.8 7.1 7.2 7.2 6.9 6.9 6.6 6.3 6.4 6.4 6.0 6.2 6.2 6.2 6.4 6.4 6.4 6.3 6.3 6.3 6.3 6.2 6.1 5.9 5.9 5.6 5.6
7.4 7.2 7.2 7.1 7.0 6.9 6.6 6.3 6.0 5.9 6.4 6.9 6.8 6.5 6.4 6.6 7.0 7.3 7.3 7.2 6.9 6.9 6.7 6.5 6.3 6.3 6.1 6.0 6.0 6.2 6.2 6.4 6.2 6.2 6.0 6.0 6.0 6.0 5.9 5.8 5.7 5.6 5.6
6.8 6.8 6.9 6.8 6.3 6.4 6.8 6.6 6.1 6.2 6.1 6.3 6.6 6.5 6.5 6.7 6.8 7.0 7.1 7.2 6.9 6.8 6.7 6.5 6.4 6.3 6.1 6.1 6.0 6.1 6.1 6.2 6.1 6.0 5.9 5.9 5.8 5.6 5.7 5.7 5.5 5.5 5.5
5.9 5.8 5.9 6.1 5.8 5.9 5.5 6.3 6.1 5.8 6.1 6.1 6.4 6.4 6.4 6.5 6.7 6.8 6.9 7.1 6.9 6.9 6.8 6.4 6.4 6.3 6.2 5.8 6.0 6.1 6.1 6.0 6.1 6.0 6.0 5.9 5.8 5.5 5.5 5.7 5.7 5.7 5.5
5.7 5.4 5.2 5.4 5.6 5.9 5.7 5.6 5.5 5.7 5.6 5.6 6.2 6.4 6.3 6.4 6.5 6.7 6.9 6.9 7.0 6.9 6.8 6.5 6.4 6.3 6.2 5.8 5.9 6.0 6.0 5.9 5.9 5.9 5.9 5.8 5.6 5.4 5.2 5.3 5.5 5.5 5.9
6.1 6.0 5.9 5.9 5.9 6.0 6.1 5.9 5.6 5.5 5.4 5.5 6.1 6.5 6.4 6.2 6.4 6.6 6.7 6.8 7.0 7.0 6.7 6.5 6.3 6.0 6.2 5.9 6.0 6.1 6.0 6.0 6.0 5.9 5.8 5.8 5.7 5.7 5.6 5.3 5.4 5.5 6.0
6.4 6.7 6.4 6.6 6.5 6.1 6.3 6.3 5.6 5.4 5.5 5.6 6.2 6.4 6.1 6.1 6.4 6.6 6.6 6.8 7.0 6.8 6.6 6.4 6.2 5.8 5.9 5.9 6.0 6.1 6.0 6.0 6.0 5.9 5.9 5.9 5.9 5.8 5.6 5.5 5.4 5.6 5.6
6.6 6.1 6.5 6.2 6.1 6.1 6.3 6.6 6.4 5.5 5.9 6.1 6.4 6.2 6.1 6.3 6.5 6.5 6.5 6.8 6.8 6.7 6.4 6.1 6.2 5.9 6.0 6.1 6.2 6.1 6.1 6.1 6.1 6.0 6.0 6.1 5.9 5.8 5.8 5.8 5.5 5.2 5.2
7.5 7.6 7.1 6.6 6.4 6.4 6.3 6.6 6.4 6.0 6.0 6.1 6.1 5.9 6.1 6.3 6.5 6.5 6.6 6.8 6.7 6.4 6.2 6.2 6.1 6.0 6.0 6.1 6.0 6.1 6.2 6.1 6.1 6.1 6.1 5.9 5.8 5.9 5.8 5.5 5.3 5.2 5.1
7.9 7.9 7.7 7.1 6.5 6.3 6.1 6.6 6.4 6.1 5.8 6.1 6.0 6.1 6.3 6.4 6.6 6.5 6.6 6.7 6.3 6.2 6.3 6.3 6.1 5.9 6.0 6.0 6.1 6.1 6.0 6.0 6.0 6.0 6.0 5.9 5.8 5.8 5.6 5.4 5.3 5.3 5.1
7.6 7.6 7.4 7.1 6.6 6.4 6.0 6.4 6.6 6.0 5.8 6.2 6.3 6.5 6.3 6.4 6.4 6.5 6.5 6.4 6.1 6.2 6.0 6.1 6.0 5.9 5.5 5.7 5.8 5.9 5.9 6.0 6.1 6.0 5.8 5.8 5.8 5.6 5.4 5.3 5.3 5.3 5.2
7.1 7.2 7.0 7.2 6.7 6.6 6.2 6.3 6.4 5.6 6.0 6.2 6.4 6.5 6.4 6.4 6.4 6.6 6.1 6.1 6.0 6.2 6.0 6.1 5.9 5.6 5.8 5.9 5.9 5.9 6.1 6.0 6.0 5.8 5.8 5.7 5.5 5.3 5.2 5.3 5.3 5.2 5.1
7.2 6.7 7.1 7.4 7.1 6.7 6.6 6.8 6.1 5.6 6.3 6.5 6.5 6.5 6.4 6.4 6.7 6.6 6.1 6.3 6.2 6.2 6.1 6.0 5.6 5.6 5.5 5.6 5.9 6.1 6.0 5.9 5.7 5.7 5.7 5.5 5.3 5.3 5.4 5.3 5.2 5.0 4.8
7.4 6.7 7.4 7.5 7.6 6.9 6.9 6.8 6.3 6.5 6.5 6.5 6.4 6.3 6.1 6.3 6.1 6.5 6.7 6.2 6.5 6.2 5.8 5.8 5.5 5.7 5.2 5.3 5.7 5.9 5.8 5.6 5.6 5.6 5.5 5.3 5.3 5.3 5.2 5.1 5.1 4.9 4.6
6.6 6.3 6.6 7.1 7.4 6.8 6.8 7.1 7.0 6.4 6.3 6.4 6.3 6.0 5.7 5.9 6.7 6.3 6.9 6.1 5.7 6.0 5.8 5.5 5.3 5.6 5.5 5.9 5.8 5.7 5.6 5.5 5.5 5.5 5.4 5.3 5.2 5.1 5.0 4.8 4.7 4.2 3.9
6.5 6.4 6.4 6.6 7.0 6.5 6.4 7.0 6.6 6.3 6.2 6.3 6.1 5.9 6.1 6.0 6.2 6.3 6.3 6.0 5.6 5.2 5.5 5.3 5.2 5.6 6.0 5.9 5.5 5.6 5.4 5.5 5.4 5.4 5.4 5.2 5.0 4.9 4.8 4.6 4.4 3.9 3.5
6.5 6.2 6.5 6.8 6.4 6.1 6.3 6.6 6.2 6.2 6.1 6.1 6.3 6.2 6.2 6.2 6.0 5.6 5.7 5.5 5.3 5.3 5.2 5.2 5.6 5.5 5.6 5.6 5.5 5.4 5.3 5.4 5.4 5.3 5.1 4.9 4.9 4.8 4.5 4.2 3.9 3.6 3.4
5.7 5.5 6.3 5.9 5.9 6.1 6.4 6.4 6.4 6.2 6.3 6.4 6.4 6.0 5.4 6.2 5.7 5.2 5.1 5.4 5.3 5.1 5.1 5.5 5.4 5.5 5.9 5.4 5.2 5.4 5.5 5.5 5.4 5.1 4.8 4.8 4.6 4.2 4.0 3.6 3.4 3.4 3.4
5.7 5.7 5.8 5.9 6.1 6.3 6.1 6.0 6.3 6.5 6.7 7.0 6.4 5.1 5.6 5.8 5.5 5.1 5.1 5.0 5.0 5.1 5.4 5.5 5.5 5.6 5.3 5.3 5.4 5.4 5.4 5.4 5.1 4.8 4.6 4.3 4.0 3.7 3.4 3.2 3.2 3.6 3.8
5.5 5.5 5.6 5.8 5.8 6.1 6.2 6.4 6.4 6.4 5.9 6.0 5.7 5.7 5.6 4.6 4.7 4.7 5.1 5.3 5.4 5.4 5.4 5.4 5.5 5.4 5.4 5.4 5.3 5.3 5.1 5.0 4.9 4.6 4.4 4.1 3.8 3.5 3.3 3.1 3.3 3.7 4.3
5.7 6.0 6.0 5.6 6.2 5.8 5.9 5.2 5.1 5.3 5.9 5.4 5.1 5.0 5.0 5.2 5.1 5.2 5.5 5.4 5.2 5.3 5.5 5.6 5.5 5.5 5.4 5.4 5.4 5.2 5.0 4.8 4.6 4.3 4.1 3.7 3.4 3.3 3.1 3.3 3.8 4.4 4.7
5.5 5.4 5.0 5.1 5.3 5.0 5.1 5.4 5.5 5.2 5.5 5.1 5.1 5.2 5.1 4.9 5.1 5.3 5.1 5.2 5.6 5.7 5.6 5.5 5.4 5.3 5.3 5.3 5.1 4.8 4.5 4.3 4.1 4.0 3.6 3.1 3.1 3.1 3.5 4.1 4.4 4.6 4.6
5.6 5.4 5.2 5.1 5.1 5.1 5.0 4.9 5.3 5.4 5.2 5.1 4.8 4.8 5.0 5.3 5.4 5.5 5.6 5.7 5.7 5.5 5.4 5.4 5.5 5.5 5.3 5.0 4.6 4.4 4.2 4.0 3.8 3.4 3.3 3.4 3.6 3.8 4.4 4.6 4.6 4.4 4.5
6.0 5.9 5.8 5.8 5.6 5.5 5.3 5.1 4.9 4.8 5.1 5.1 5.2 5.5 5.6 5.6 5.6 5.7 5.7 5.5 5.5 5.5 5.6 5.6 5.4 5.2 4.8 4.6 4.5 4.2 4.0 3.6 3.3 3.3 3.6 3.9 4.3 4.7 4.7 4.7 4.4 4.5 4.5
6.1 6.0 5.8 5.7 5.6 5.5 5.4 5.6 5.6 5.5 5.4 5.5 5.5 5.5 5.5 5.6 5.6 5.5 5.5 5.5 5.6 5.6 5.5 5.2 4.9 4.7 4.6 4.5 4.2 3.8 3.4 3.3 3.4 3.4 4.0 4.4 4.6 4.7 4.9 4.8 4.7 4.5 4.4
Wind_Speed
12 9 9 9 9 9 9 11 11 10 6 4 9 9 8 7 8 6 10 15 16 15 11 4 6 7 6 5 5 3 4 4 4 1 3 1 3 2 2 3 1 1 6
12 14 11 10 10 9 9 9 9 13 12 7 5 5 5 3 4 5 7 12 13 15 9 6 6 6 5 6 5 3 2 2 4 2 0 3 3 3 3 2 3 1 1
16 15 14 12 10 13 12 9 9 9 14 10 5 7 7 4 4 5 4 5 11 12 10 8 6 7 5 5 5 3 3 3 2 4 2 2 1 3 2 2 1 2 0
15 15 16 13 11 11 13 10 9 9 9 10 9 15 10 9 3 4 5 7 10 8 10 10 9 6 5 6 4 4 3 3 3 2 2 3 3 1 4 3 3 4 2
10 10 10 10 9 7 7 14 11 9 9 13 12 10 8 6 7 8 10 9 5 8 11 11 9 8 5 6 6 4 5 3 3 2 2 1 0 3 3 4 3 4 4
6 6 8 6 6 8 7 5 10 9 9 11 11 14 14 13 10 10 9 8 6 5 6 10 7 8 7 7 5 4 5 4 4 2 2 2 1 0 0 2 3 5 4
3 6 5 7 7 9 9 7 8 8 9 9 10 14 13 15 15 15 10 12 9 7 8 7 7 6 8 7 6 6 5 4 3 3 1 1 0 1 1 1 3 3 3
2 5 7 7 9 9 10 9 8 7 8 11 11 10 13 10 10 12 11 9 9 8 9 8 7 8 9 7 7 4 4 5 3 3 1 0 1 1 1 1 1 5 3
6 6 8 9 10 9 9 10 9 8 9 11 10 11 13 13 12 12 12 9 10 9 10 9 8 8 7 6 6 4 4 4 3 2 1 2 2 1 2 1 1 3 5
5 4 6 9 12 10 8 9 9 9 9 11 9 13 12 12 13 13 13 14 13 11 12 9 8 7 6 6 5 4 4 3 1 2 1 1 1 2 2 2 2 2 3
3 3 5 7 12 10 6 8 8 8 11 8 15 13 10 12 13 12 12 13 14 13 11 11 8 7 6 6 5 5 4 3 0 1 1 3 2 3 3 2 3 3 3
5 1 3 6 10 9 7 7 8 12 11 14 15 14 13 14 13 13 13 13 13 11 10 10 9 7 6 5 5 3 3 2 0 2 2 3 2 4 4 3 5 3 4
7 4 3 6 8 8 5 6 11 11 15 15 15 13 13 13 14 14 12 13 13 11 10 10 8 7 6 5 5 3 2 1 2 3 3 4 4 4 3 4 4 3 6
5 6 3 4 7 3 2 9 13 14 14 14 14 14 14 14 14 14 13 13 11 10 8 9 8 7 5 5 4 2 2 3 3 4 3 4 5 5 4 4 5 6 4
1 7 4 3 3 3 6 13 13 13 13 14 13 14 15 14 15 13 12 12 9 8 9 9 7 6 5 4 4 4 5 5 5 5 5 4 5 12 12 6 4 5 5
5 8 5 4 3 7 9 11 11 11 13 13 13 14 16 15 15 13 13 10 9 9 8 7 6 6 5 7 3 3 3 5 5 5 5 5 8 9 13 15 18 15 9
6 3 6 5 10 9 9 10 10 9 12 14 14 15 15 14 13 13 12 10 7 8 7 6 5 5 6 7 2 4 3 5 6 6 5 5 4 9 6 10 17 14 19
8 3 7 11 11 11 11 12 12 12 13 13 14 15 16 14 10 9 10 8 6 6 6 6 5 4 4 5 2 6 4 5 6 6 6 5 6 6 9 7 4 6 6
5 10 12 12 12 13 13 14 13 13 13 12 13 13 13 12 12 9 7 6 7 6 5 4 3 4 4 4 1 5 4 5 6 5 6 6 6 12 18 8 7 9 8
13 14 14 14 14 13 14 15 13 14 13 12 12 10 9 9 9 6 7 5 5 5 4 4 2 5 1 3 3 5 2 5 4 5 6 14 13 19 19 13 11 10 10
14 14 12 13 13 13 15 14 12 12 12 12 11 8 9 6 8 7 6 6 5 5 4 2 2 2 3 2 5 7 2 3 4 4 4 4 17 20 23 23 9 11 14
13 13 12 11 11 11 13 14 12 9 10 11 11 10 9 7 5 7 6 6 5 4 2 2 2 2 1 4 5 8 10 11 4 5 4 6 19 23 23 18 20 21 18
11 9 10 11 9 10 10 15 11 10 11 12 11 11 9 6 6 6 6 4 4 3 2 2 1 2 3 3 9 11 13 15 9 6 13 21 22 22 15 16 19 17 5
9 9 12 13 12 10 10 11 12 11 12 12 10 7 7 7 6 4 4 4 4 3 3 3 3 4 4 4 4 4 4 10 9 13 7 13 17 16 13 11 8 4 6
7 10 11 11 12 11 11 10 11 11 11 9 7 6 5 6 5 5 4 4 4 4 2 2 2 3 4 4 11 11 7 6 10 13 4 6 4 6 6 6 6 7 7
10 11 11 12 12 12 11 10 9 10 10 8 5 5 4 4 4 3 3 4 4 2 1 2 3 2 8 13 15 16 18 19 19 6 3 4 5 6 7 7 8 8 11
Wind_Direction
249 244 238 250 244 232 228 201 178 179 173 189 192 185 191 156 159 149 148 134 142 146 148 145 135 135 139 148 130 116 111 34 353 16 347 284 161 184 221 196 212 245 185
242 245 241 219 230 238 246 230 197 181 187 193 192 186 120 102 116 115 113 122 126 130 143 145 138 128 126 114 117 139 117 96 33 72 318 354 338 330 237 176 149 241 121
242 245 250 237 220 219 234 244 216 189 188 183 159 97 90 68 73 92 89 107 120 129 138 131 121 120 114 120 115 120 113 131 38 67 130 28 294 324 328 237 95 344 328
242 247 251 262 238 221 214 229 225 202 183 171 159 160 165 162 162 122 117 112 122 131 138 135 127 123 118 112 123 118 117 108 131 70 59 91 135 103 328 339 338 322 330
215 229 229 227 244 263 227 209 216 211 184 184 162 163 145 116 130 123 121 129 130 145 141 135 129 126 119 112 119 129 101 91 118 114 84 31 221 209 186 280 299 338 335
40 355 331 303 240 245 239 236 212 193 174 175 154 151 150 137 141 146 149 143 137 153 140 135 136 128 126 123 128 120 110 105 96 91 100 152 153 303 326 298 309 283 289
42 314 335 317 287 235 236 216 216 200 165 153 138 150 158 147 151 156 155 151 154 162 155 140 128 122 121 132 129 128 125 115 103 109 110 49 9 165 225 270 286 283 303
61 18 325 305 282 252 206 203 195 184 162 143 148 156 135 147 149 156 156 150 154 153 140 132 124 125 126 127 128 125 126 122 126 134 123 76 314 321 213 219 273 305 267
82 15 340 312 293 271 210 188 182 177 162 149 154 144 142 146 152 142 145 144 141 147 136 127 127 132 127 136 139 139 138 131 150 155 168 207 254 297 288 279 221 220 296
72 29 333 306 305 283 223 181 169 172 154 152 136 134 137 134 139 142 145 146 143 144 131 122 125 122 124 126 120 119 118 112 102 150 121 308 297 311 310 284 276 262 253
320 359 312 309 304 291 240 172 156 150 146 135 128 117 122 129 133 134 140 143 132 130 126 128 125 127 133 131 124 114 121 139 190 334 254 278 289 278 279 292 284 273 264
199 246 323 311 300 293 275 158 153 149 121 112 111 117 115 126 125 131 134 125 127 123 125 128 126 124 125 120 117 121 124 150 280 297 312 292 307 310 295 289 283 274 282
202 150 46 315 294 304 283 141 130 118 115 113 114 119 127 127 133 127 122 127 125 124 125 124 123 121 117 115 97 82 43 352 292 274 268 274 284 286 284 288 298 304 298
234 141 106 300 289 314 340 88 91 106 109 114 120 130 130 129 128 124 128 125 120 125 114 112 110 106 99 94 90 69 351 312 302 297 280 272 263 263 270 274 269 274 278
219 129 122 238 298 24 90 97 98 102 112 119 126 131 127 125 120 118 117 110 109 104 109 109 103 117 124 91 47 21 5 338 325 313 294 287 291 298 295 292 263 268 272
290 123 133 192 94 89 92 93 94 101 115 120 127 125 122 117 114 114 105 106 122 116 110 109 123 104 97 93 48 12 345 319 311 304 300 298 294 294 311 310 305 302 301
323 122 154 140 98 92 98 89 92 102 115 121 121 115 109 106 107 109 117 122 117 101 111 122 110 111 120 100 28 340 334 306 291 282 283 284 287 307 280 285 293 296 296
251 210 126 109 108 105 103 101 100 105 109 108 105 103 100 100 102 112 115 125 130 125 121 103 112 127 114 130 36 336 319 302 295 291 286 281 290 281 298 279 262 274 270
203 113 103 106 106 107 107 104 100 99 95 95 91 94 108 121 122 140 148 112 109 104 96 105 118 78 75 142 9 348 327 313 311 311 330 324 306 304 307 321 300 297 293
85 99 103 110 106 110 113 107 108 110 112 112 110 110 124 137 131 125 101 97 94 98 102 98 86 123 199 277 352 337 333 320 317 326 315 309 316 315 318 311 307 304 307
82 88 94 99 108 110 107 102 108 112 112 110 118 127 94 101 101 99 101 98 101 103 98 123 253 189 179 229 307 321 336 286 281 276 283 283 313 313 312 314 320 304 303
87 100 107 110 111 113 117 115 111 119 132 125 109 108 105 95 101 99 86 87 88 95 104 68 6 2 37 347 321 311 310 314 321 298 290 287 309 319 318 318 313 310 320
128 126 126 126 124 122 124 121 128 119 110 102 93 89 100 123 102 97 98 94 85 77 53 39 27 345 354 345 347 352 332 330 320 313 311 321 320 319 316 314 320 328 322
108 104 99 98 96 95 96 101 110 112 109 111 116 118 108 95 87 82 74 78 65 49 40 30 17 352 347 348 349 330 315 311 310 299 300 322 320 317 325 325 318 316 311
91 98 101 100 101 106 105 109 113 113 108 102 98 97 92 94 86 77 83 76 71 86 59 23 0 342 331 308 324 328 321 308 303 325 338 321 317 329 323 320 314 313 310
97 100 103 107 109 109 109 108 108 109 112 108 101 99 94 88 89 86 63 56 102 93 71 332 327 309 321 325 327 324 319 320 331 330 323 314 319 318 319 316 313 311 310